Location: *
(49.7115°N, 15.0136°E)
Time: 18:28:36
(UTC+00:00)

STARLINK-1025 - Pass Details

Date: 27 February 2020
Orbit: 549 x 550 km, 53.0° (Epoch: 01 April)

Event Time Altitude Azimuth Distance (km) Brightness Sun altitude
Rises 18:32:22 0° 284° (WNW) 2,722 8.8 -19.2°
Reaches altitude 10° 18:34:38 10° 289° (WNW) 1,828 7.5 -19.5°
Maximum altitude 18:38:44 57° 8° (N) 654 3.9 -20.2°
Enters shadow 18:39:28 48° 51° (NE) 724 3.9 -20.3°
